Вернуться в каталог

STARLINK-31585

АктивенСвязьVLEO
NORAD 59608·PAYLOAD·🇺🇸 United States

Запущен Apr 28, 2024 с Cape Canaveral Space Force Station

Loading…

Ближайшие Пролёты (ближайшие 24 часа)

TLE

СвежийSource: CelesTrak SupGP

Эпоха: Sep 14, 2026, 22:21 UTC

1 59608C 24080H   26257.93173611  .00048117  00000+0  17434-2 0  2573
2 59608  43.0023  45.2183 0001686 278.1432 325.7657 15.27543495    14

Отслеживайте STARLINK-31585 в реальном времени с AllMySat

Download on the App Store